Tracking 28238 objects as of 28-Nov-2023
HD Live streaming from Space Station
objects crossing your sky now

HGS 4 (GALAXY 4)

Track HGS 4 (GALAXY 4) now!
HGS 4 (GALAXY 4) is classified as:


NORAD ID: 22694
Int'l Code: 1993-039A
Perigee: 35,767.1 km
Apogee: 35,822.1 km
Inclination: 14.6 °
Period: 1,436.1 minutes
Semi major axis: 42165 km
RCS: 28.88 m2 (large)
Launch date: June 25, 1993
Source: United States (US)
Launch site: FRENCH GUIANA (FRGUI)
Your satellite tracking list
Your tracking list is empty




NASA's NSSDC Master Catalog

Two Line Element Set (TLE):
1 22694U 93039A   23332.63507870 -.00000140  00000-0  00000-0 0  9992
2 22694  14.6173   2.2014 0006520  24.8993 346.9355  1.00268774109666
Source of the keplerian elements: AFSPC